Tracking 33750 objects as of 15-Apr-2026
HD Live streaming from Space Station
objects crossing your sky now

METEOR 2-11 DEB

Track METEOR 2-11 DEB now!
10-day predictions


NORAD ID: 45517
Int'l Code: 1984-072X
Perigee: 880.6 km
Apogee: 899.7 km
Inclination: 82.5 °
Period: 102.6 minutes
Semi major axis: 7261 km
RCS: Unknown
Launch date: July 5, 1984
Source: Commonwealth of Independent States (former USSR) (CIS)
Launch site: PLESETSK MISSILE AND SPACE COMPLEX (PKMTR)

Note: This is SATELLITE DEBRIS
Your satellite tracking list
Your tracking list is empty




NASA's NSSDC Master Catalog

Two Line Element Set (TLE):
1 45517U 84072X   26080.20027138  .00003150  00000-0  20145-2 0  9995
2 45517  82.5147  65.1883 0013130 135.8201 240.1839 14.03121925580761
Source of the keplerian elements: AFSPC